| time (UTC) | temp F | wind direction | speed MPH | gust MPH | rain 1hr in | rain 24hr in | rain mn in | humidity % | barometer mb |
| 20260906030059 | 82 | 0 | 0.0 | 0.0 | 0.00 | 0.15 | 0.15 | 85 | 1013.5 |
| 20260906024602 | 82 | 0 | 0.0 | 0.0 | 0.00 | 0.15 | 0.15 | 85 | 1013.3 |
| 20260906023104 | 82 | 0 | 0.0 | 0.0 | 0.00 | 0.15 | 0.15 | 85 | 1013.1 |
| 20260906021608 | 82 | 0 | 0.0 | 0.0 | 0.00 | 0.15 | 0.15 | 84 | 1012.8 |
| 20260906020106 | 82 | 0 | 0.0 | 0.0 | 0.00 | 0.15 | 0.15 | 84 | 1012.7 |
| 20260906014608 | 83 | 0 | 0.0 | 0.0 | 0.00 | 0.15 | 0.15 | 84 | 1012.5 |
| 20260906013105 | 83 | 0 | 0.0 | 0.0 | 0.00 | 0.15 | 0.15 | 83 | 1012.4 |
| 20260906011604 | 83 | 0 | 0.0 | 1.0 | 0.00 | 0.15 | 0.15 | 83 | 1012.3 |
| 20260906010109 | 83 | 0 | 0.0 | 2.0 | 0.00 | 0.15 | 0.15 | 82 | 1012.3 |
| 20260906004604 | 84 | 0 | 0.0 | 2.0 | 0.00 | 0.15 | 0.15 | 81 | 1012.4 |
| 20260906003053 | 84 | 0 | 0.0 | 1.0 | 0.00 | 0.15 | 0.15 | 80 | 1012.4 |
| 20260906001617 | 85 | 0 | 0.0 | 2.0 | 0.00 | 0.15 | 0.15 | 80 | 1012.7 |
| 20260906000106 | 85 | 0 | 0.0 | 2.0 | 0.00 | 0.15 | 0.15 | 79 | 1012.9 |
| 20260905234558 | 85 | 0 | 0.0 | 2.0 | 0.00 | 0.15 | 0.15 | 78 | 1012.9 |
| 20260905233113 | 86 | 178 | 0.0 | 3.0 | 0.00 | 0.15 | 0.15 | 77 | 1012.8 |
| 20260905231608 | 86 | 175 | 1.0 | 2.0 | 0.00 | 0.15 | 0.15 | 76 | 1012.6 |
| 20260905230111 | 86 | 38 | 1.0 | 3.0 | 0.00 | 0.15 | 0.15 | 74 | 1012.6 |
| 20260905224601 | 87 | 122 | 0.0 | 4.0 | 0.00 | 0.15 | 0.15 | 74 | 1012.5 |
| 20260905223105 | 88 | 291 | 0.0 | 2.0 | 0.00 | 0.15 | 0.15 | 73 | 1012.5 |
| 20260905221603 | 88 | 111 | 0.0 | 4.0 | 0.00 | 0.15 | 0.15 | 72 | 1012.4 |
| 20260905220105 | 89 | 196 | 1.0 | 3.0 | 0.00 | 0.15 | 0.15 | 68 | 1012.3 |
| 20260905214558 | 90 | 217 | 1.0 | 3.0 | 0.00 | 0.15 | 0.15 | 65 | 1012.5 |
| 20260905213110 | 90 | 9 | 1.0 | 2.0 | 0.00 | 0.15 | 0.15 | 66 | 1012.6 |
| 20260905211601 | 91 | 214 | 1.0 | 5.0 | 0.00 | 0.15 | 0.15 | 64 | 1012.7 |
| 20260905210109 | 91 | 159 | 1.0 | 4.0 | 0.00 | 0.15 | 0.15 | 65 | 1012.7 |
| 20260905204605 | 91 | 152 | 1.0 | 3.0 | 0.00 | 0.15 | 0.15 | 65 | 1012.7 |
| 20260905203058 | 91 | 232 | 1.0 | 2.0 | 0.00 | 0.15 | 0.15 | 66 | 1012.9 |
| 20260905201610 | 90 | 199 | 1.0 | 3.0 | 0.00 | 0.15 | 0.15 | 65 | 1013.0 |
| 20260905200147 | 88 | 334 | 0.0 | 2.0 | 0.00 | 0.15 | 0.15 | 70 | 1013.0 |
| 20260905194612 | 88 | 276 | 0.0 | 2.0 | 0.00 | 0.15 | 0.15 | 70 | 1013.2 |
| 20260905193101 | 87 | 91 | 0.0 | 3.0 | 0.00 | 0.15 | 0.15 | 70 | 1013.3 |
| 20260905191605 | 87 | 44 | 0.0 | 2.0 | 0.00 | 0.15 | 0.15 | 71 | 1013.7 |
| 20260905184612 | 87 | 205 | 0.0 | 2.0 | 0.00 | 0.15 | 0.15 | 77 | 1014.1 |
| 20260905183112 | 84 | 81 | 0.0 | 2.0 | 0.02 | 0.15 | 0.15 | 79 | 1014.4 |
| 20260905181607 | 82 | 0 | 0.0 | 2.0 | 0.11 | 0.15 | 0.15 | 80 | 1014.4 |
| 20260905180116 | 80 | 0 | 0.0 | 0.0 | 0.15 | 0.15 | 0.15 | 85 | 1014.7 |
| 20260905174601 | 79 | 87 | 0.0 | 2.0 | 0.15 | 0.15 | 0.15 | 86 | 1015.1 |
| 20260905173104 | 78 | 171 | 1.0 | 5.0 | 0.13 | 0.13 | 0.13 | 87 | 1015.3 |
| 20260905171607 | 81 | 150 | 2.0 | 7.0 | 0.04 | 0.04 | 0.04 | 84 | 1015.6 |
| 20260905170101 | 82 | 150 | 4.0 | 10.0 | 0.00 | 0.00 | 0.00 | 75 | 1015.7 |
| 20260905164606 | 84 | 10 | 2.0 | 6.0 | 0.00 | 0.00 | 0.00 | 70 | 1015.5 |
| 20260905163109 | 86 | 325 | 4.0 | 11.0 | 0.00 | 0.00 | 0.00 | 70 | 1015.2 |
| 20260905161615 | 89 | 29 | 5.0 | 8.0 | 0.00 | 0.00 | 0.00 | 67 | 1015.1 |
| 20260905160101 | 89 | 346 | 1.0 | 4.0 | 0.00 | 0.00 | 0.00 | 71 | 1015.0 |
| 20260905154606 | 87 | 0 | 0.0 | 3.0 | 0.00 | 0.00 | 0.00 | 72 | 1015.1 |
| 20260905153106 | 86 | 244 | 1.0 | 4.0 | 0.00 | 0.00 | 0.00 | 73 | 1015.1 |
| 20260905151601 | 87 | 23 | 1.0 | 3.0 | 0.00 | 0.00 | 0.00 | 74 | 1015.1 |
| 20260905150106 | 87 | 225 | 1.0 | 2.0 | 0.00 | 0.00 | 0.00 | 78 | 1015.1 |
| 20260905144603 | 85 | 240 | 1.0 | 2.0 | 0.00 | 0.00 | 0.00 | 80 | 1015.2 |
| 20260905143105 | 86 | 0 | 0.0 | 3.0 | 0.00 | 0.00 | 0.00 | 81 | 1015.1 |
| 20260905141603 | 85 | 276 | 1.0 | 3.0 | 0.00 | 0.00 | 0.00 | 82 | 1015.1 |
| 20260905140105 | 84 | 0 | 1.0 | 2.0 | 0.00 | 0.00 | 0.00 | 84 | 1014.7 |
| 20260905134606 | 83 | 0 | 0.0 | 0.0 | 0.00 | 0.00 | 0.00 | 88 | 1014.7 |
| 20260905133056 | 81 | 0 | 0.0 | 0.0 | 0.00 | 0.00 | 0.00 | 92 | 1015.0 |
| 20260905131611 | 80 | 0 | 0.0 | 0.0 | 0.00 | 0.00 | 0.00 | 94 | 1014.9 |
| 20260905130105 | 78 | 0 | 0.0 | 0.0 | 0.00 | 0.00 | 0.00 | 94 | 1014.7 |
| 20260905124601 | 78 | 0 | 0.0 | 0.0 | 0.00 | 0.00 | 0.00 | 95 | 1014.4 |
| 20260905123100 | 77 | 0 | 0.0 | 0.0 | 0.00 | 0.00 | 0.00 | 94 | 1014.3 |
| 20260905121605 | 77 | 0 | 0.0 | 0.0 | 0.00 | 0.00 | 0.00 | 94 | 1014.3 |
| 20260905120104 | 77 | 0 | 0.0 | 0.0 | 0.00 | 0.00 | 0.00 | 94 | 1014.0 |
| 20260905114612 | 76 | 0 | 0.0 | 0.0 | 0.00 | 0.00 | 0.00 | 94 | 1013.8 |
| 20260905113109 | 77 | 0 | 0.0 | 0.0 | 0.00 | 0.00 | 0.00 | 94 | 1013.7 |
| 20260905111615 | 77 | 0 | 0.0 | 0.0 | 0.00 | 0.00 | 0.00 | 94 | 1013.6 |
| 20260905110104 | 77 | 0 | 0.0 | 0.0 | 0.00 | 0.00 | 0.00 | 94 | 1013.4 |
| 20260905104559 | 77 | 0 | 0.0 | 0.0 | 0.00 | 0.00 | 0.00 | 94 | 1013.3 |
| 20260905103104 | 77 | 0 | 0.0 | 0.0 | 0.00 | 0.00 | 0.00 | 94 | 1013.3 |
| 20260905101600 | 77 | 0 | 0.0 | 0.0 | 0.00 | 0.00 | 0.00 | 94 | 1013.3 |
| 20260905100108 | 77 | 0 | 0.0 | 0.0 | 0.00 | 0.00 | 0.00 | 94 | 1013.6 |
| 20260905094612 | 77 | 0 | 0.0 | 0.0 | 0.00 | 0.00 | 0.00 | 94 | 1013.4 |
| 20260905093103 | 77 | 0 | 0.0 | 0.0 | 0.00 | 0.00 | 0.00 | 94 | 1013.4 |
| 20260905091607 | 77 | 0 | 0.0 | 0.0 | 0.00 | 0.00 | 0.00 | 93 | 1013.4 |
| 20260905090054 | 77 | 0 | 0.0 | 0.0 | 0.00 | 0.00 | 0.00 | 94 | 1013.4 |
| 20260905084609 | 77 | 0 | 0.0 | 0.0 | 0.00 | 0.00 | 0.00 | 93 | 1013.2 |
| 20260905083103 | 78 | 0 | 0.0 | 0.0 | 0.00 | 0.00 | 0.00 | 93 | 1013.2 |
| 20260905081616 | 77 | 0 | 0.0 | 0.0 | 0.00 | 0.00 | 0.00 | 93 | 1013.2 |
| 20260905080100 | 78 | 0 | 0.0 | 0.0 | 0.00 | 0.00 | 0.00 | 93 | 1013.2 |
| 20260905074605 | 78 | 0 | 0.0 | 0.0 | 0.00 | 0.00 | 0.00 | 92 | 1013.3 |
| 20260905073104 | 78 | 0 | 0.0 | 0.0 | 0.00 | 0.00 | 0.00 | 92 | 1013.3 |
| 20260905071604 | 78 | 0 | 0.0 | 0.0 | 0.00 | 0.00 | 0.00 | 92 | 1013.6 |
| 20260905070100 | 79 | 0 | 0.0 | 0.0 | 0.00 | 0.00 | 0.00 | 91 | 1013.6 |
| 20260905064604 | 79 | 0 | 0.0 | 0.0 | 0.00 | 0.00 | 0.00 | 92 | 1013.7 |
| 20260905063118 | 79 | 0 | 0.0 | 0.0 | 0.00 | 0.00 | 0.00 | 91 | 1014.0 |
| 20260905061613 | 79 | 0 | 0.0 | 0.0 | 0.00 | 0.00 | 0.00 | 91 | 1014.0 |
| 20260905060057 | 79 | 0 | 0.0 | 0.0 | 0.00 | 0.00 | 0.00 | 91 | 1014.0 |
| 20260905054606 | 79 | 0 | 0.0 | 0.0 | 0.00 | 0.00 | 0.00 | 90 | 1014.0 |
| 20260905053103 | 80 | 0 | 0.0 | 0.0 | 0.00 | 0.00 | 0.00 | 89 | 1014.1 |
| 20260905051601 | 81 | 0 | 0.0 | 0.0 | 0.00 | 0.00 | 0.00 | 88 | 1014.1 |
| 20260905050105 | 81 | 0 | 0.0 | 0.0 | 0.00 | 0.00 | 0.00 | 87 | 1014.0 |
| 20260905044607 | 81 | 0 | 0.0 | 0.0 | 0.00 | 0.00 | 0.00 | 87 | 1014.0 |
| 20260905043130 | 81 | 0 | 0.0 | 2.0 | 0.00 | 0.00 | 0.00 | 87 | 1013.9 |
| 20260905041602 | 82 | 0 | 0.0 | 3.0 | 0.00 | 0.00 | 0.00 | 86 | 1014.1 |
| 20260905040118 | 82 | 0 | 0.0 | 2.0 | 0.00 | 0.00 | 0.00 | 86 | 1014.3 |
| 20260905034606 | 82 | 0 | 0.0 | 2.0 | 0.00 | 0.00 | 0.00 | 85 | 1014.4 |
| 20260905033103 | 82 | 0 | 0.0 | 2.0 | 0.00 | 0.00 | 0.00 | 85 | 1014.3 |
| 20260905031604 | 82 | 163 | 0.0 | 0.0 | 0.00 | 0.00 | 0.00 | 84 | 1014.2 |